Weather History for Lewisburg, WV

Change the Weather History Date:

Friday, March 9, 2012

  Actual Average Record
Temperature  
Mean Temperature 44 °F 37 °F  
Max Temperature 51 °F 49 °F 75 °F (1974)
Min Temperature 37 °F 25 °F 5 °F (1996)
Degree Days  
Heating Degree Days 21    
Month to date heating degree days  
Cooling Degree Days 0    
Month to date cooling degree days  
Year to date cooling degree days  
Moisture  
Dew Point 27 °F    
Average Humidity 56    
Maximum Humidity 82    
Minimum Humidity 28    
Precipitation  
Precipitation 0.01 in 0.11 in 0.00 in (2015)
Month to date precipitation 0.93  
Year to date precipitation 6.96  
Snow  
Snow 0.00 in - - ()
Month to date snowfall  
Snow Depth -    
Sea Level Pressure  
Sea Level Pressure 30.22 in    
Wind  
Wind Speed 8 mph (NW)    
Max Wind Speed 16 mph    
Max Gust Speed 25 mph    
Visibility 10 miles    
Events Rain    
T = Trace of Precipitation, MM = Missing Value Source: NWS Daily Summary

Daily Weather History Graph

Daily Weather History Graph

Search for Another Location

Airport:

Trip Planner

Search our weather history database for the weather conditions in past years. The results will help you decide how hot, cold, wet, or windy it might be!

Date:

Astronomy

Mar. 09, 2012 Rise Set
Actual Time 6:40 AM EST 6:23 PM EST
Civil Twilight 6:14 AM EST 6:49 PM EST
Nautical Twilight 5:44 AM EST 7:20 PM EST
Astronomical Twilight 5:13 AM EST 7:50 PM EST
Moon 8:18 PM EST (3/9) 7:01 AM EST (3/9)
Length of Visible Light 12h 34m
Length of Day
11h 42m
Full, 98% of the Moon is Illuminated
Mar 9
Full
Mar 14
Last Quarter
Mar 22
New
Mar 30
First Quarter
Apr 6
Full

Hourly Weather History & Observations

Time (EST) Temp. Windchill Dew Point Humidity Pressure Visibility Wind Dir Wind Speed Gust Speed Precip Events Conditions
12:15 AM 51.8 °F - 46.4 °F 82% 30.12 in 10.0 mi West 6.9 mph - N/A Rain Light Rain
12:35 AM 51.8 °F - 46.4 °F 82% 30.12 in 10.0 mi West 6.9 mph - 0.01 in   Light Drizzle
12:55 AM 51.8 °F - 44.6 °F 76% 30.12 in 10.0 mi West 9.2 mph 16.1 mph 0.01 in   Light Drizzle
1:15 AM 46.4 °F 40.1 °F 39.2 °F 76% 30.15 in 10.0 mi NNW 15.0 mph 21.9 mph N/A   Overcast
1:35 AM 44.6 °F 40.2 °F 37.4 °F 76% 30.14 in 10.0 mi NNW 8.1 mph - N/A   Overcast
1:55 AM 44.6 °F 41.4 °F 37.4 °F 76% 30.15 in 10.0 mi NNW 5.8 mph - N/A   Drizzle
2:15 AM 44.6 °F 40.2 °F 35.6 °F 71% 30.15 in 10.0 mi North 8.1 mph - N/A   Overcast
2:35 AM 44.6 °F 40.7 °F 37.4 °F 76% 30.15 in 10.0 mi NNW 6.9 mph - N/A   Overcast
2:55 AM 42.8 °F 39.3 °F 35.6 °F 76% 30.15 in 10.0 mi NNW 5.8 mph - N/A   Overcast
3:15 AM 42.8 °F 38.0 °F 35.6 °F 76% 30.14 in 10.0 mi NNW 8.1 mph - N/A   Overcast
3:35 AM 42.8 °F 39.3 °F 35.6 °F 76% 30.14 in 10.0 mi North 5.8 mph - N/A   Scattered Clouds
3:55 AM 41.0 °F 37.1 °F 33.8 °F 76% 30.15 in 10.0 mi NNW 5.8 mph - N/A   Clear
4:15 AM 41.0 °F 39.0 °F 33.8 °F 76% 30.15 in 10.0 mi NNW 3.5 mph - N/A   Clear
4:35 AM 41.0 °F 39.0 °F 33.8 °F 76% 30.17 in 10.0 mi WNW 3.5 mph - N/A   Clear
4:55 AM 41.0 °F 38.0 °F 32.0 °F 70% 30.17 in 10.0 mi West 4.6 mph - N/A   Clear
5:15 AM 41.0 °F - 32.0 °F 70% 30.17 in 10.0 mi Calm Calm - N/A   Scattered Clouds
5:35 AM 41.0 °F 39.0 °F 32.0 °F 70% 30.18 in 10.0 mi WNW 3.5 mph - N/A   Mostly Cloudy
5:55 AM 41.0 °F 35.8 °F 32.0 °F 70% 30.19 in 10.0 mi West 8.1 mph - N/A   Overcast
6:15 AM 39.2 °F 35.0 °F 32.0 °F 75% 30.19 in 10.0 mi WNW 5.8 mph - N/A   Mostly Cloudy
6:35 AM 37.4 °F 33.8 °F 32.0 °F 81% 30.20 in 10.0 mi WNW 4.6 mph - N/A   Mostly Cloudy
6:55 AM 37.4 °F 34.9 °F 32.0 °F 81% 30.21 in 10.0 mi WNW 3.5 mph - N/A   Mostly Cloudy
7:15 AM 37.4 °F 33.8 °F 32.0 °F 81% 30.22 in 10.0 mi WNW 4.6 mph - N/A   Overcast
7:35 AM 37.4 °F 32.1 °F 32.0 °F 81% 30.23 in 10.0 mi NW 6.9 mph - N/A   Overcast
7:55 AM 37.4 °F 33.8 °F 32.0 °F 81% 30.24 in 10.0 mi WNW 4.6 mph - N/A   Overcast
8:15 AM 37.4 °F 33.8 °F 32.0 °F 81% 30.25 in 10.0 mi NW 4.6 mph - N/A   Overcast
8:35 AM 37.4 °F 31.4 °F 30.2 °F 75% 30.26 in 10.0 mi NW 8.1 mph - N/A   Mostly Cloudy
8:55 AM 37.4 °F 30.8 °F 28.4 °F 70% 30.27 in 10.0 mi NW 9.2 mph 17.3 mph N/A   Scattered Clouds
9:15 AM 37.4 °F 31.4 °F 28.4 °F 70% 30.27 in 10.0 mi NW 8.1 mph 19.6 mph N/A   Clear
9:55 AM 37.4 °F 30.3 °F 26.6 °F 65% 30.28 in 10.0 mi West 10.4 mph - N/A   Clear
10:15 AM 37.4 °F 29.8 °F 24.8 °F 60% 30.27 in 10.0 mi WNW 11.5 mph 17.3 mph N/A   Clear
10:35 AM 37.4 °F 30.3 °F 23.0 °F 56% 30.27 in 10.0 mi West 10.4 mph 17.3 mph N/A   Clear
10:55 AM 41.0 °F 34.3 °F 23.0 °F 49% 30.26 in 10.0 mi NW 11.5 mph - N/A   Clear
11:15 AM 42.8 °F 38.0 °F 21.2 °F 42% 30.26 in 10.0 mi WNW 8.1 mph 17.3 mph N/A   Clear
11:35 AM 42.8 °F 36.6 °F 19.4 °F 39% 30.25 in 10.0 mi WNW 11.5 mph 25.3 mph N/A   Clear
11:55 AM 44.6 °F 39.2 °F 21.2 °F 39% 30.25 in 10.0 mi NW 10.4 mph 19.6 mph N/A   Clear
12:15 PM 44.6 °F 38.8 °F 21.2 °F 39% 30.25 in 10.0 mi NW 11.5 mph 20.7 mph N/A   Clear
12:35 PM 46.4 °F 41.9 °F 21.2 °F 37% 30.25 in 10.0 mi NW 9.2 mph 18.4 mph N/A   Clear
12:55 PM 46.4 °F 41.5 °F 23.0 °F 40% 30.24 in 10.0 mi WNW 10.4 mph 16.1 mph N/A   Clear
1:15 PM 46.4 °F 40.7 °F 21.2 °F 37% 30.23 in 10.0 mi WNW 12.7 mph 23.0 mph N/A   Clear
1:35 PM 48.2 °F - 21.2 °F 34% 30.23 in 10.0 mi NW 13.8 mph 21.9 mph N/A   Clear
1:55 PM 50.0 °F - 21.2 °F 32% 30.22 in 10.0 mi WNW 11.5 mph 19.6 mph N/A   Clear
2:15 PM 50.0 °F - 21.2 °F 32% 30.21 in 10.0 mi West 11.5 mph 19.6 mph N/A   Clear
2:35 PM 50.0 °F - 17.6 °F 28% 30.22 in 10.0 mi West 16.1 mph 25.3 mph N/A   Clear
2:55 PM 50.0 °F - 19.4 °F 30% 30.22 in 10.0 mi West 13.8 mph 25.3 mph N/A   Clear
3:15 PM 50.0 °F - 21.2 °F 32% 30.22 in 10.0 mi WNW 12.7 mph 20.7 mph N/A   Clear
3:35 PM 50.0 °F - 23.0 °F 35% 30.22 in 10.0 mi WNW 10.4 mph 21.9 mph N/A   Clear
3:55 PM 50.0 °F - 21.2 °F 32% 30.22 in 10.0 mi West 11.5 mph 21.9 mph N/A   Clear
4:15 PM 50.0 °F - 21.2 °F 32% 30.22 in 10.0 mi WNW 12.7 mph 21.9 mph N/A   Clear
4:35 PM 50.0 °F - 21.2 °F 32% 30.22 in 10.0 mi WNW 12.7 mph 19.6 mph N/A   Clear
4:55 PM 50.0 °F - 21.2 °F 32% 30.23 in 10.0 mi WNW 13.8 mph 20.7 mph N/A   Clear
5:15 PM 48.2 °F - 21.2 °F 34% 30.22 in 10.0 mi NNW 6.9 mph - N/A   Clear
5:35 PM 46.4 °F 41.5 °F 19.4 °F 34% 30.23 in 10.0 mi NW 10.4 mph 17.3 mph N/A   Clear
5:55 PM 46.4 °F 42.4 °F 21.2 °F 37% 30.25 in 10.0 mi NNW 8.1 mph - N/A   Clear
6:15 PM 44.6 °F 38.1 °F 21.2 °F 39% 30.26 in 10.0 mi NNW 13.8 mph 23.0 mph N/A   Clear
6:35 PM 44.6 °F 40.7 °F 21.2 °F 39% 30.26 in 10.0 mi North 6.9 mph - N/A   Clear
6:55 PM 42.8 °F 36.2 °F 19.4 °F 39% 30.28 in 10.0 mi NNW 12.7 mph 16.1 mph N/A   Clear
7:15 PM 42.8 °F 37.5 °F 19.4 °F 39% 30.29 in 10.0 mi NNW 9.2 mph - N/A   Clear
7:35 PM 42.8 °F 37.5 °F 21.2 °F 42% 30.29 in 10.0 mi NNW 9.2 mph 16.1 mph N/A   Clear
7:55 PM 41.0 °F 33.9 °F 21.2 °F 45% 30.30 in 10.0 mi NW 12.7 mph 24.2 mph N/A   Clear
8:15 PM 41.0 °F 35.2 °F 21.2 °F 45% 30.30 in 10.0 mi NNW 9.2 mph 17.3 mph N/A   Clear
8:35 PM 39.2 °F 33.0 °F 19.4 °F 45% 30.32 in 10.0 mi NNW 9.2 mph 17.3 mph N/A   Clear
8:55 PM 39.2 °F 32.0 °F 19.4 °F 45% 30.32 in 10.0 mi NNW 11.5 mph 16.1 mph N/A   Clear
9:15 PM 37.4 °F 29.3 °F 19.4 °F 48% 30.33 in 10.0 mi NNW 12.7 mph 19.6 mph N/A   Clear
9:35 PM 37.4 °F 30.8 °F 19.4 °F 48% 30.33 in 10.0 mi NNW 9.2 mph 17.3 mph N/A   Clear
9:55 PM 37.4 °F 30.3 °F 17.6 °F 45% 30.34 in 10.0 mi NNW 10.4 mph - N/A   Clear
10:15 PM 35.6 °F 28.6 °F 19.4 °F 52% 30.34 in 10.0 mi NNW 9.2 mph - N/A   Clear
10:35 PM 35.6 °F 29.9 °F 19.4 °F 52% 30.35 in 10.0 mi North 6.9 mph - N/A   Clear
10:55 PM 35.6 °F 29.9 °F 19.4 °F 52% 30.36 in 10.0 mi North 6.9 mph - N/A   Clear
11:15 PM 35.6 °F 28.6 °F 19.4 °F 52% 30.36 in 10.0 mi NNW 9.2 mph - N/A   Clear
11:35 PM 35.6 °F 31.7 °F 19.4 °F 52% 30.36 in 10.0 mi NNW 4.6 mph - N/A   Clear
11:55 PM 33.8 °F 29.6 °F 19.4 °F 56% 30.36 in 10.0 mi NW 4.6 mph - N/A   Clear